This is the latest recevied weather packets stored in our database for station/object LKLN. If no packets are shown the sender has not sent any weather packets the latest 10 day(s).
| Time | Temp. | Humidity | Pressure | Rain* | Wind** | Luminosity | Snow |
|---|---|---|---|---|---|---|---|
| 1787941870 | 18.89° C | 88% | 1014 hPa | - | - | - | - |
| 1787940065 | 18.89° C | 88% | 1014 hPa | - | - | - | - |
| 1787938270 | 20° C | 82% | 1013 hPa | - | - | - | - |
| 1787936472 | 20° C | 88% | 1014 hPa | - | - | - | - |
| 1787935811 | 20° C | 82% | 1014 hPa | - | - | - | - |
| 1787934664 | 21.11° C | 83% | 1015 hPa | - | - | - | - |
| 1787932871 | 22.22° C | 73% | 1015 hPa | - | - | - | - |
| 1787931064 | 23.89° C | 57% | 1014 hPa | - | - | - | - |
| 1787929270 | 23.89° C | 57% | 1014 hPa | - | - | - | - |
| 1787927469 | 23.89° C | 57% | 1014 hPa | - | - | - | - |
| 1787925672 | 25° C | 53% | 1014 hPa | - | - | - | - |
| 1787923870 | 23.89° C | 57% | 1014 hPa | - | - | - | - |
| 1787922071 | 23.89° C | 60% | 1014 hPa | - | - | - | - |
| 1787920269 | 22.78° C | 64% | 1015 hPa | - | - | - | - |
| 1787918471 | 26.11° C | 50% | 1015 hPa | - | - | - | - |
| 1787918223 | 26.11° C | 50% | 1015 hPa | - | - | - | - |
| 1787916670 | 27.22° C | 51% | 1012 hPa | - | - | - | - |
| 1787914871 | 26.11° C | 50% | 1012 hPa | - | - | - | - |
| 1787913064 | 26.11° C | 50% | 1012 hPa | - | - | - | - |
| 1787911272 | 26.11° C | 50% | 1012 hPa | - | - | - | - |
| 1787909465 | 25° C | 53% | 1012 hPa | - | - | - | - |
| 1787907665 | 23.89° C | 53% | 1012 hPa | - | - | - | - |
| 1787905864 | 22.78° C | 56% | 1012 hPa | - | - | - | - |
| 1787904072 | 22.78° C | 56% | 1013 hPa | - | - | - | - |
| 1787902269 | 22.22° C | 60% | 1014 hPa | - | - | - | - |
* Rain since midnight (hover to see other rain measurements)
** Current wind speed in m/s (hover to see current wind gust speed)